Location: Newark
(25.0000°N, 73.5000°E)
Time: 11:57:16
(UTC+00:00)

Hubble Space Telescope - Pass Details

Date: 18 June 2021
Orbit: 535 x 539 km, 28.5° (Epoch: 30 July)

Event Time Altitude Azimuth Distance (km) Brightness Sun altitude
Rises 15:31:24 0° 268° (W) 2,665 5.1 -18.7°
Reaches altitude 10° 15:34:26 10° 245° (WSW) 1,774 3.7 -19.3°
Maximum altitude 15:36:50 15° 209° (SSW) 1,475 2.9 -19.7°
Enters shadow 15:37:08 15° 203° (SSW) 1,480 2.8 -19.8°
